Location: Livorno
(43.5500°N, 10.3170°E)
Time: 17:08:18
(UTC+01:00)

X-37B - Visible Passes

Search period start: 27 October 2020 00:00
Search period end: 06 November 2020 00:00
Orbit: 382 x 392 km, 45.0° (Epoch: 15 October)

Date Brightness Start Highest point End Pass type
(mag) Time Alt. Az. Time Alt. Az. Time Alt. Az.
31 Oct 3.1 06:21:58 10° SSW 06:24:30 22° SSE 06:27:02 10° E visible
01 Nov 3.6 05:24:39 10° S 05:26:09 13° SE 05:27:38 10° ESE visible
02 Nov 2.1 06:00:52 10° SW 06:03:48 35° SSE 06:06:46 10° E visible
03 Nov 2.7 05:04:29 19° S 05:05:23 21° SSE 05:07:55 10° E visible
04 Nov 1.1 05:41:18 21° SW 05:43:11 57° SSE 05:46:20 10° E visible
05 Nov 2.6 04:45:41 28° ESE 04:45:41 28° ESE 04:47:39 10° E visible
05 Nov 0.6 06:18:02 10° W 06:21:13 75° N 06:24:25 10° ENE visible
